Location: Capelle
(50.3413°N, 1.9974°E)
Time: 06:26:00
(UTC+00:00)

Cosmos 1666 Rocket - Pass Details

Date: 12 January 2026
Orbit: 598 x 625 km, 82.5° (Epoch: 18 February)

Event Time Altitude Azimuth Distance (km) Brightness Sun altitude
Rises 16:44:49 0° 356° (N) 2,916 6.8 -5.2°
Reaches altitude 10° 16:47:14 10° 6° (N) 2,007 5.9 -5.5°
Maximum altitude 16:51:18 34° 72° (ENE) 1,036 4.2 -6.1°
Drops below altitude 10° 16:55:20 10° 137° (SE) 1,997 6.0 -6.7°
Sets 16:57:44 0° 147° (SSE) 2,899 6.9 -7.0°
